Time,TemperatureF,DewpointF,PressureIn,WindDirection,WindDirectionDegrees,WindSpeedMPH,WindSpeedGustMPH,Humidity,HourlyPrecipIn,Conditions,Clouds,dailyrainin,SolarRadiationWatts/m^2,SoftwareType,DateUTC
2013-01-04 00:14:00,59.5,59.0,30.15,NNE,18,3.0,8.0,98,0.02,,,0.01,0,weatherlink.com 1.10,2013-01-04 05:14:00,
2013-01-04 00:29:00,59.5,59.0,30.15,NNW,345,2.0,9.0,99,0.01,,,0.01,0,weatherlink.com 1.10,2013-01-04 05:29:00,
2013-01-04 00:44:00,59.3,59.0,30.15,NNW,347,2.0,7.0,99,0.02,,,0.02,0,weatherlink.com 1.10,2013-01-04 05:44:00,
2013-01-04 00:59:00,59.2,59.0,30.16,NNW,336,4.0,6.0,99,0.03,,,0.03,0,weatherlink.com 1.10,2013-01-04 05:59:00,
2013-01-04 01:14:00,59.1,59.0,30.15,North,360,1.0,5.0,99,0.02,,,0.03,0,weatherlink.com 1.10,2013-01-04 06:14:00,
2013-01-04 01:29:00,58.9,59.0,30.15,NNW,347,2.0,6.0,99,0.02,,,0.04,0,weatherlink.com 1.10,2013-01-04 06:29:00,
2013-01-04 01:44:00,58.8,59.0,30.15,NW,324,3.0,7.0,99,0.01,,,0.04,0,weatherlink.com 1.10,2013-01-04 06:44:00,
2013-01-04 01:59:00,58.7,59.0,30.15,NNE,15,1.0,4.0,99,0.01,,,0.04,0,weatherlink.com 1.10,2013-01-04 06:59:00,
2013-01-04 02:14:00,58.6,58.0,30.15,North,5,2.0,5.0,99,0.01,,,0.04,0,weatherlink.com 1.10,2013-01-04 07:14:00,
2013-01-04 02:29:00,58.4,58.0,30.15,North,351,2.0,5.0,99,0.00,,,0.04,0,weatherlink.com 1.10,2013-01-04 07:29:00,
2013-01-04 02:44:00,57.7,58.0,30.15,NE,35,1.0,12.0,99,0.00,,,0.04,0,weatherlink.com 1.10,2013-01-04 07:44:00,
2013-01-04 02:59:00,57.4,57.0,30.15,NNW,345,0.0,10.0,99,0.00,,,0.04,0,weatherlink.com 1.10,2013-01-04 07:59:00,
2013-01-04 03:14:00,57.3,57.0,30.15,NNW,348,2.0,7.0,99,0.00,,,0.04,0,weatherlink.com 1.10,2013-01-04 08:14:00,
2013-01-04 03:29:00,57.2,57.0,30.15,NNE,27,1.0,7.0,98,0.00,,,0.04,0,weatherlink.com 1.10,2013-01-04 08:29:00,
2013-01-04 03:44:00,57.3,57.0,30.15,North,5,2.0,6.0,98,0.00,,,0.04,0,weatherlink.com 1.10,2013-01-04 08:44:00,
2013-01-04 03:59:00,57.3,57.0,30.16,North,360,2.0,6.0,98,0.00,,,0.04,0,weatherlink.com 1.10,2013-01-04 08:59:00,
2013-01-04 04:14:00,57.2,57.0,30.16,NNW,344,2.0,7.0,98,0.00,,,0.04,0,weatherlink.com 1.10,2013-01-04 09:14:00,
2013-01-04 04:30:00,57.1,57.0,30.16,North,5,2.0,8.0,98,0.00,,,0.04,0,weatherlink.com 1.10,2013-01-04 09:30:00,
2013-01-04 04:44:00,57.1,57.0,30.16,NNW,330,1.0,7.0,98,0.00,,,0.04,0,weatherlink.com 1.10,2013-01-04 09:44:00,
2013-01-04 04:59:00,56.8,56.0,30.16,North,9,4.0,10.0,98,0.00,,,0.04,0,weatherlink.com 1.10,2013-01-04 09:59:00,
2013-01-04 05:14:00,56.1,56.0,30.16,North,355,2.0,12.0,98,0.01,,,0.05,0,weatherlink.com 1.10,2013-01-04 10:14:00,
2013-01-04 05:29:00,55.9,55.0,30.17,NNW,343,2.0,8.0,98,0.01,,,0.05,0,weatherlink.com 1.10,2013-01-04 10:29:00,
2013-01-04 05:44:00,55.7,55.0,30.18,North,355,2.0,9.0,98,0.01,,,0.05,0,weatherlink.com 1.10,2013-01-04 10:44:00,
2013-01-04 05:59:00,55.6,55.0,30.18,NE,37,2.0,7.0,98,0.01,,,0.05,0,weatherlink.com 1.10,2013-01-04 10:59:00,
2013-01-04 06:14:00,55.3,55.0,30.18,North,355,2.0,7.0,98,0.00,,,0.05,0,weatherlink.com 1.10,2013-01-04 11:14:00,
2013-01-04 06:29:00,55.2,55.0,30.18,North,355,1.0,10.0,98,0.00,,,0.05,0,weatherlink.com 1.10,2013-01-04 11:29:00,
2013-01-04 06:44:00,55.2,55.0,30.19,NNW,329,3.0,8.0,98,0.00,,,0.05,0,weatherlink.com 1.10,2013-01-04 11:44:00,
2013-01-04 06:59:00,55.2,55.0,30.19,North,355,2.0,6.0,99,0.00,,,0.05,0,weatherlink.com 1.10,2013-01-04 11:59:00,
2013-01-04 07:14:00,55.1,55.0,30.20,NNW,328,2.0,6.0,99,0.00,,,0.05,0,weatherlink.com 1.10,2013-01-04 12:14:00,
2013-01-04 07:30:00,55.0,55.0,30.21,North,5,3.0,6.0,99,0.00,,,0.05,0,weatherlink.com 1.10,2013-01-04 12:30:00,
2013-01-04 07:45:00,55.0,55.0,30.22,North,355,2.0,9.0,99,0.00,,,0.05,5,weatherlink.com 1.10,2013-01-04 12:45:00,
2013-01-04 08:00:00,55.1,55.0,30.22,NNW,347,1.0,7.0,99,0.00,,,0.05,11,weatherlink.com 1.10,2013-01-04 13:00:00,
2013-01-04 08:15:00,55.1,55.0,30.22,NE,52,1.0,9.0,99,0.00,,,0.05,23,weatherlink.com 1.10,2013-01-04 13:15:00,
2013-01-04 08:30:00,55.3,55.0,30.23,ENE,78,4.0,9.0,98,0.00,,,0.05,40,weatherlink.com 1.10,2013-01-04 13:30:00,
2013-01-04 08:45:00,55.6,55.0,30.23,NE,44,2.0,11.0,99,0.00,,,0.05,58,weatherlink.com 1.10,2013-01-04 13:45:00,
2013-01-04 09:00:00,55.7,55.0,30.24,NNE,19,3.0,12.0,98,0.00,,,0.05,53,weatherlink.com 1.10,2013-01-04 14:00:00,
2013-01-04 09:15:00,55.8,55.0,30.24,ENE,59,4.0,10.0,98,0.00,,,0.05,60,weatherlink.com 1.10,2013-01-04 14:15:00,
2013-01-04 09:30:00,56.0,56.0,30.25,NNE,27,1.0,8.0,98,0.00,,,0.05,51,weatherlink.com 1.10,2013-01-04 14:30:00,
2013-01-04 09:45:00,56.3,56.0,30.24,North,360,3.0,9.0,98,0.00,,,0.05,79,weatherlink.com 1.10,2013-01-04 14:45:00,
2013-01-04 10:00:00,56.5,56.0,30.25,NE,41,6.0,9.0,98,0.00,,,0.05,102,weatherlink.com 1.10,2013-01-04 15:00:00,
2013-01-04 10:15:00,56.6,56.0,30.25,East,89,3.0,8.0,98,0.00,,,0.05,69,weatherlink.com 1.10,2013-01-04 15:15:00,
2013-01-04 10:30:00,56.7,56.0,30.25,North,11,5.0,6.0,98,0.00,,,0.05,102,weatherlink.com 1.10,2013-01-04 15:30:00,
2013-01-04 10:45:00,56.9,56.0,30.25,East,91,5.0,9.0,98,0.00,,,0.05,90,weatherlink.com 1.10,2013-01-04 15:45:00,
2013-01-04 11:00:00,57.4,57.0,30.24,NE,42,2.0,10.0,98,0.00,,,0.05,128,weatherlink.com 1.10,2013-01-04 16:00:00,
2013-01-04 11:15:00,57.5,57.0,30.24,ENE,63,4.0,7.0,98,0.00,,,0.05,107,weatherlink.com 1.10,2013-01-04 16:15:00,
2013-01-04 11:30:00,57.7,57.0,30.24,NE,38,3.0,7.0,98,0.00,,,0.05,127,weatherlink.com 1.10,2013-01-04 16:30:00,
2013-01-04 11:45:00,58.0,58.0,30.24,NNE,19,2.0,8.0,98,0.00,,,0.05,141,weatherlink.com 1.10,2013-01-04 16:45:00,
2013-01-04 12:00:00,58.4,58.0,30.24,ENE,67,3.0,7.0,98,0.00,,,0.05,172,weatherlink.com 1.10,2013-01-04 17:00:00,
2013-01-04 12:15:00,59.1,59.0,30.22,NE,41,2.0,7.0,98,0.00,,,0.05,204,weatherlink.com 1.10,2013-01-04 17:15:00,
2013-01-04 12:30:00,59.7,59.0,30.21,ENE,72,5.0,8.0,98,0.00,,,0.05,214,weatherlink.com 1.10,2013-01-04 17:30:00,
2013-01-04 12:45:00,60.4,60.0,30.21,NE,43,3.0,7.0,97,0.00,,,0.05,176,weatherlink.com 1.10,2013-01-04 17:45:00,
2013-01-04 13:00:00,60.1,59.0,30.21,NE,35,3.0,6.0,96,0.00,,,0.05,155,weatherlink.com 1.10,2013-01-04 18:00:00,
2013-01-04 13:15:00,60.3,59.0,30.20,NNE,20,2.0,8.0,96,0.00,,,0.05,90,weatherlink.com 1.10,2013-01-04 18:15:00,
2013-01-04 13:30:00,60.1,59.0,30.20,ENE,58,3.0,5.0,96,0.00,,,0.05,104,weatherlink.com 1.10,2013-01-04 18:30:00,
2013-01-04 13:45:00,60.0,59.0,30.19,North,11,1.0,7.0,97,0.00,,,0.05,83,weatherlink.com 1.10,2013-01-04 18:45:00,
2013-01-04 14:00:00,60.0,59.0,30.19,NE,42,2.0,3.0,97,0.00,,,0.05,153,weatherlink.com 1.10,2013-01-04 19:00:00,
2013-01-04 14:15:00,60.4,60.0,30.19,ENE,65,2.0,4.0,98,0.00,,,0.05,125,weatherlink.com 1.10,2013-01-04 19:15:00,
2013-01-04 14:30:00,60.5,60.0,30.19,NE,38,2.0,4.0,98,0.00,,,0.05,79,weatherlink.com 1.10,2013-01-04 19:30:00,
2013-01-04 14:45:00,60.4,60.0,30.18,NNE,30,2.0,5.0,98,0.00,,,0.05,105,weatherlink.com 1.10,2013-01-04 19:45:00,
2013-01-04 15:00:00,60.2,60.0,30.18,NW,325,1.0,5.0,98,0.00,,,0.05,91,weatherlink.com 1.10,2013-01-04 20:00:00,
2013-01-04 15:15:00,60.3,60.0,30.19,North,355,4.0,6.0,98,0.00,,,0.05,97,weatherlink.com 1.10,2013-01-04 20:15:00,
2013-01-04 15:30:00,60.3,60.0,30.20,NNE,29,0.0,4.0,98,0.00,,,0.05,28,weatherlink.com 1.10,2013-01-04 20:30:00,
2013-01-04 15:45:00,59.5,59.0,30.20,NNW,327,3.0,5.0,98,0.00,,,0.05,28,weatherlink.com 1.10,2013-01-04 20:45:00,
2013-01-04 16:00:00,59.1,59.0,30.21,NNW,333,3.0,5.0,98,0.00,,,0.05,32,weatherlink.com 1.10,2013-01-04 21:00:00,
2013-01-04 16:15:00,59.2,59.0,30.21,NNW,332,0.0,6.0,98,0.00,,,0.05,35,weatherlink.com 1.10,2013-01-04 21:15:00,
2013-01-04 16:30:00,59.0,59.0,30.22,North,360,2.0,9.0,98,0.00,,,0.05,40,weatherlink.com 1.10,2013-01-04 21:30:00,
2013-01-04 16:45:00,58.6,58.0,30.22,North,5,3.0,7.0,98,0.00,,,0.05,26,weatherlink.com 1.10,2013-01-04 21:45:00,
2013-01-04 17:00:00,58.7,58.0,30.22,North,355,1.0,5.0,98,0.00,,,0.05,23,weatherlink.com 1.10,2013-01-04 22:00:00,
2013-01-04 17:15:00,58.5,58.0,30.22,WNW,296,0.0,6.0,99,0.00,,,0.05,14,weatherlink.com 1.10,2013-01-04 22:15:00,
2013-01-04 17:30:00,58.6,58.0,30.22,North,5,2.0,5.0,99,0.00,,,0.05,5,weatherlink.com 1.10,2013-01-04 22:30:00,
2013-01-04 17:45:00,58.5,58.0,30.22,WNW,293,2.0,6.0,98,0.00,,,0.05,0,weatherlink.com 1.10,2013-01-04 22:45:00,
2013-01-04 18:00:00,58.2,58.0,30.23,NW,316,5.0,6.0,98,0.00,,,0.05,0,weatherlink.com 1.10,2013-01-04 23:00:00,
2013-01-04 18:15:00,58.1,58.0,30.23,NNE,30,0.0,6.0,99,0.00,,,0.05,0,weatherlink.com 1.10,2013-01-04 23:15:00,
2013-01-04 18:30:00,58.2,58.0,30.24,NE,44,2.0,4.0,99,0.00,,,0.05,0,weatherlink.com 1.10,2013-01-04 23:30:00,
2013-01-04 18:45:00,58.3,58.0,30.24,NNE,32,1.0,5.0,98,0.00,,,0.05,0,weatherlink.com 1.10,2013-01-04 23:45:00,
2013-01-04 19:00:00,58.4,58.0,30.24,North,360,3.0,5.0,98,0.00,,,0.05,0,weatherlink.com 1.10,2013-01-05 00:00:00,
2013-01-04 19:15:00,58.4,58.0,30.25,NW,324,5.0,6.0,98,0.00,,,0.05,0,weatherlink.com 1.10,2013-01-05 00:15:00,
2013-01-04 19:30:00,58.4,58.0,30.25,NE,55,1.0,6.0,98,0.00,,,0.05,0,weatherlink.com 1.10,2013-01-05 00:30:00,
2013-01-04 19:45:00,58.4,58.0,30.25,ENE,65,1.0,4.0,98,0.00,,,0.05,0,weatherlink.com 1.10,2013-01-05 00:45:00,
2013-01-04 20:00:00,58.6,58.0,30.26,NNE,22,2.0,2.0,97,0.00,,,0.05,0,weatherlink.com 1.10,2013-01-05 01:00:00,
2013-01-04 20:15:00,58.5,58.0,30.26,NNE,31,1.0,6.0,97,0.00,,,0.05,0,weatherlink.com 1.10,2013-01-05 01:15:00,
2013-01-04 20:30:00,58.5,58.0,30.27,North,355,1.0,6.0,97,0.00,,,0.05,0,weatherlink.com 1.10,2013-01-05 01:30:00,
2013-01-04 20:45:00,58.6,58.0,30.27,NNE,31,0.0,5.0,97,0.00,,,0.05,0,weatherlink.com 1.10,2013-01-05 01:45:00,
2013-01-04 21:01:00,58.6,58.0,30.27,NNE,22,3.0,6.0,96,0.00,,,0.05,0,weatherlink.com 1.10,2013-01-05 02:01:00,
2013-01-04 21:16:00,58.7,58.0,30.27,ENE,78,5.0,7.0,96,0.00,,,0.05,0,weatherlink.com 1.10,2013-01-05 02:16:00,
2013-01-04 21:31:00,58.7,57.0,30.27,NE,45,3.0,7.0,95,0.00,,,0.05,0,weatherlink.com 1.10,2013-01-05 02:31:00,
2013-01-04 21:46:00,58.7,57.0,30.26,East,87,5.0,6.0,95,0.00,,,0.05,0,weatherlink.com 1.10,2013-01-05 02:46:00,
2013-01-04 22:01:00,58.9,57.0,30.26,NE,56,2.0,5.0,94,0.00,,,0.05,0,weatherlink.com 1.10,2013-01-05 03:01:00,
2013-01-04 22:16:00,59.0,57.0,30.26,North,355,1.0,5.0,94,0.00,,,0.05,0,weatherlink.com 1.10,2013-01-05 03:16:00,
2013-01-04 22:31:00,59.0,57.0,30.26,NE,53,1.0,6.0,93,0.00,,,0.05,0,weatherlink.com 1.10,2013-01-05 03:31:00,
2013-01-04 22:46:00,59.0,57.0,30.26,North,11,1.0,5.0,93,0.00,,,0.05,0,weatherlink.com 1.10,2013-01-05 03:46:00,
2013-01-04 23:01:00,59.1,57.0,30.27,NE,56,1.0,6.0,92,0.00,,,0.05,0,weatherlink.com 1.10,2013-01-05 04:01:00,
2013-01-04 23:16:00,59.2,57.0,30.26,NNE,26,2.0,4.0,91,0.00,,,0.05,0,weatherlink.com 1.10,2013-01-05 04:16:00,
2013-01-04 23:31:00,59.1,57.0,30.26,NE,47,1.0,5.0,91,0.00,,,0.05,0,weatherlink.com 1.10,2013-01-05 04:31:00,
2013-01-04 23:46:00,59.0,56.0,30.26,NE,55,3.0,7.0,91,0.00,,,0.05,0,weatherlink.com 1.10,2013-01-05 04:46:00,